Location: Newark
(52.1031°N, 9.3600°E)
Time: 20:36:17
(UTC+00:00)

Envisat - Pass Details

Date: 26 October 2019
Orbit: 764 x 766 km, 98.1° (Epoch: 11 November)

Event Time Altitude Azimuth Distance (km) Brightness Sun altitude
Rises 17:08:04 0° 162° (SSE) 3,222 6.1 -10.1°
Reaches altitude 10° 17:10:21 10° 162° (SSE) 2,300 5.4 -10.4°
Maximum altitude 17:15:26 87° 74° (ENE) 775 3.0 -11.2°
Drops below altitude 10° 17:20:33 10° 346° (NNW) 2,316 5.6 -12.0°
Sets 17:22:52 0° 346° (NNW) 3,246 6.4 -12.3°
